Location: Black Forest
(43.4794°N, 75.0081°W)
Time: 08:10:31
(UTC-04:00)

ISS - Visible Passes

Search period start: 30 July 2015 00:00
Search period end: 09 August 2015 00:00
Orbit: 401 x 403 km, 51.6° (Epoch: 30 July)

Date Brightness Start Highest point End Pass type
(mag) Time Alt. Az. Time Alt. Az. Time Alt. Az.
30 Jul -0.3 00:54:36 14° NNE 00:54:36 14° NNE 00:55:21 10° NE visible
30 Jul -0.7 02:27:20 10° NW 02:29:54 21° N 02:32:30 10° ENE visible
30 Jul -2.7 04:03:36 10° NW 04:06:50 58° NNE 04:10:03 10° ESE visible
30 Jul -3.5 22:19:39 10° SW 22:22:53 66° SE 22:23:41 45° E visible
31 Jul -0.2 00:04:14 - NE 00:04:14 - NE 23:56:38 10° WNW visible
31 Jul -0.5 01:36:57 19° N 01:36:57 19° N 01:39:10 10° NE visible
31 Jul -1.8 03:10:42 10° NW 03:13:47 37° NNE 03:16:52 10° E visible
31 Jul -2.7 04:47:11 10° WNW 04:50:13 35° SW 04:53:13 10° SSE visible
31 Jul -2.7 21:27:02 10° SSW 21:30:00 34° SE 21:33:01 10° ENE visible
31 Jul -1.8 23:03:21 10° W 23:06:26 37° NNW 23:09:04 13° NE visible
01 Aug -0.2 00:41:03 10° NW 00:41:47 14° NW 00:41:47 14° NW visible
01 Aug -0.8 02:22:08 19° ENE 02:22:08 19° ENE 02:23:31 10° ENE visible
01 Aug -3.5 03:55:04 18° WNW 03:57:20 68° SW 04:00:34 10° SE visible
01 Aug -2.8 22:10:10 10° WSW 22:13:23 59° NNW 22:16:37 10° NE visible
01 Aug -0.7 23:47:43 10° WNW 23:50:18 21° N 23:51:30 17° NNE visible
02 Aug -1.0 04:42:27 11° S 04:42:27 11° S 04:42:36 10° S visible
02 Aug -3.4 21:17:10 10° SW 21:20:24 78° SSE 21:23:41 10° ENE visible
02 Aug -1.0 22:54:20 10° WNW 22:57:07 25° NNW 22:59:55 10° NE visible
03 Aug -0.3 00:31:50 10° NW 00:33:08 16° NNW 00:33:08 16° NNW visible
03 Aug -1.6 22:00:59 10° W 22:04:00 34° NNW 22:07:02 10° NE visible
03 Aug -0.7 23:38:40 10° NW 23:41:06 19° N 23:41:59 17° NNE visible
04 Aug -2.4 21:07:45 10° WSW 21:10:56 51° NNW 21:14:09 10° NE visible
04 Aug -0.7 22:45:22 10° WNW 22:47:54 20° N 22:50:26 10° NE visible
05 Aug -0.3 00:22:25 10° NW 00:23:22 15° NNW 00:23:22 15° NNW visible
05 Aug -0.9 21:51:59 10° WNW 21:54:43 24° NNW 21:57:27 10° NE visible
05 Aug -0.8 23:29:25 10° NW 23:31:55 20° N 23:32:08 20° NNE visible
06 Aug -1.4 20:58:38 10° W 21:01:35 31° NNW 21:04:33 10° NE visible
06 Aug -0.7 22:36:17 10° NW 22:38:43 19° N 22:40:55 11° NE visible
07 Aug -0.2 00:12:52 10° NW 00:13:29 14° NW 00:13:29 14° NW visible
07 Aug -0.7 21:43:01 10° NW 21:45:30 20° N 21:48:01 10° NE visible
07 Aug -1.0 23:19:58 10° NW 23:22:16 23° N 23:22:16 23° N visible
08 Aug -0.9 20:49:39 10° WNW 20:52:20 23° NNW 20:55:00 10° NE visible
08 Aug -1.0 22:27:00 10° NW 22:29:32 20° N 22:31:02 15° NE visible
